www.pogodaiklimat.ru

Погода и климат >> Архив погоды >> Мексика >> Puerto Angel


ПОГОДА в Puerto Angel

  • Прогноз погоды в Puerto Angel
  • Монитор погоды в Puerto Angel
  • Климат города

АРХИВ ПОГОДЫ в Puerto Angel

Время (UTC), дата Ветер
(напр.,м/с)
 
Видим.   Явления Облачность Т
(С)
Тd
(С)
f
(%)
Тe
(С)
Тes
(С)
Комфортность P
(гПа)
Po
(гПа)
Тmin
(С)
Tmax
(С)
R
(мм)
R24
(мм)
S
(см)
18 20.06 Ю 1 30 км {дождь} 6/3 600 м
[Cb cap Ac cuf Ci ing]
+29.8 +26.4 82 +46 +59 опасность
перегрева
1009.4 1004.5 3
21 20.06 ЮЗ 2 30 км 8/4 600 м
[Cb cap Ac cuf Ci ing]
+30.4 +26.2 78 +46 +52 опасность
перегрева
1007.7 1002.9
00 21.06 С 2 30 км 9/3 600 м
[Cb cap Ac cuf Ci ing]
+28.2 +25.0 83 +41 +41 опасность
перегрева
1006.8 1002.0 +24.0 +31.4
03 21.06 С 2 20 км 8/3 600 м
[Cu med, cong Ac cuf Ci ing]
+26.6 +24.4 88 +37 +37 очень
душно
1008.5 1003.6
09 21.06 С 2 20 км 6/3 600 м
[Cu med, cong Ac cuf Ci ing]
+25.4 +23.5 89 +34 +34 очень
душно
1008.4 1003.4
12 21.06 С 2 30 км 4/1 600 м
[Cu med, cong Ac und]
+24.8 +23.1 90 +33 +33 очень
душно
1008.2 1003.2 +24.0 +31.4
15 21.06 ЮВ 2 30 км 4/1 600 м
[Cu med, cong Cs]
+29.6 +24.7 75 +42 +50 опасность
перегрева
1009.3 1004.3
18 21.06 ЮЗ 2 30 км 4/1 600 м
[Cu med, cong Cs]
+32.0 +26.2 71 +48 +66 опасность
перегрева
1009.0 1004.1 +24.0 +31.4
21 21.06 ЮЗ 2 30 км 4/3 600 м
[Cu med, cong Ac As]
+32.0 +26.2 71 +48 +57 опасность
перегрева
1008.3 1003.4
00 22.06 С 2 30 км 10/3 600 м
[Cu med, cong Ac As]
+29.0 +25.0 79 +42 +42 опасность
перегрева
1007.8 1002.9 +24.0 +33.0
03 22.06 С 2 30 км 10/3 600 м
[Cu med, cong Ac As]
+27.0 +23.4 81 +37 +37 очень
душно
1008.9 1004.1
06 22.06 С 2 30 км 10/3 600 м
[Cu med, cong Ac As]
+26.6 +23.0 81 +36 +36 очень
душно
1009.8 1004.9 +24.0 +33.0
09 22.06 СЗ 2 30 км ясно +25.6 +22.8 85 +34 +34 очень
душно
1009.7 1004.8
12 22.06 В 2 30 км 10/3 600 м
[Cu med, cong Ac As]
+26.4 +23.1 82 +35 +35 очень
душно
1008.5 1003.6 +25.2 +33.0
15 22.06 В 1 30 км 10/3 600 м
[Cu med, cong Ac und]
+27.6 +24.1 81 +38 +41 очень
душно
1008.8 1003.9
18 22.06 В 1 30 км 9/1 600 м
[Cu med, cong Ac trans Cs]
+30.4 +25.0 73 +44 +56 опасность
перегрева
1009.5 1004.6 +25.2 +31.4
21 22.06 ЮВ 1 30 км 10/3 600 м
[Cu med, cong Ac und Cs]
+29.6 +24.7 75 +42 +48 опасность
перегрева
1007.8 1002.9
00 23.06 В 1 30 км {морось} 8/1 600 м
[Cu med, cong Ac und Cs]
+27.0 +24.3 85 +38 +38 очень
душно
1007.5 1002.6 0.6
06 23.06 В 1 30 км 10/3 600 м
[Cu med, cong Ac und]
+26.6 +23.0 81 +36 +36 очень
душно
1009.1 1004.2 +25.2 +31.6
12 23.06 СВ 1 30 км 9/1 600 м
[Cu med, cong Ac trans Cs]
+25.4 +22.0 81 +33 +33 очень
душно
1008.3 1003.4 +24.4 +31.6
15 23.06 ЮЗ 1 30 км 9/1 600 м
[Cu med, cong Ac und Cs]
+28.8 +23.3 72 +39 +44 очень
душно
1009.4 1004.5
18 23.06 ЮВ 1 30 км 10/3 600 м
[Cu med, cong Ac und Cs]
+30.2 +24.5 72 +43 +52 опасность
перегрева
1009.6 1004.7 +24.4 +32.0
21 23.06 В 1 30 км 10/3 600 м
[Cu med, cong Ac und Ci ing]
+30.0 +24.0 70 +41 +47 опасность
перегрева
1008.2 1003.3
00 24.06 В 1 30 км 10/3 600 м
[Cu med, cong Ac und]
+29.0 +23.2 71 +39 +39 очень
душно
1007.8 1002.9 +24.4 +32.0
03 24.06 В 2 30 км 10/3 600 м
[Cu med, cong Ac und]
+27.6 +22.0 72 +36 +36 очень
душно
1009.0 1004.1
09 24.06 В 1 30 км 10/1 600 м
[Cu med, cong Ac und Cs]
+25.0 +21.5 81 +32 +32 очень
душно
1008.1 1003.2
12 24.06 В 1 30 км 10/1 600 м
[Cu med, cong Ac und Cs]
+25.0 +22.8 88 +33 +33 очень
душно
1008.3 1003.4 +24.6 +32.0
15 24.06 Ю 5 30 км 10/1 600 м
[Cu med, cong Ac As Cs]
+27.2 +23.3 79 +37 +39 очень
душно
1010.3 1005.4
18 24.06 З 5 30 км {дождь, морось} 10/1 600 м
[Cu med, cong As op]
+24.8 +22.5 87 +32 +35 очень
душно
1011.1 1006.2 7
21 24.06 ЮВ 5 30 км {морось} 10/1 600 м
[Cu med, cong As op]
+25.0 +23.1 89 +33 +35 очень
душно
1010.7 1005.7 2
00 25.06 ЮВ 6 30 км {дождь, морось} 10/1 600 м
[Cu med, cong Ac As]
+25.6 +23.1 86 +34 +34 очень
душно
1010.2 1005.3 4
03 25.06 ЮВ 3 30 км 10/1 600 м
[Cu med, cong As op]
+25.6 +22.5 83 +34 +34 очень
душно
1012.1 1007.2
06 25.06 В 2 30 км 10/1 600 м
[Cu med, cong As op]
+24.8 +23.4 92 +33 +33 очень
душно
1013.7 1008.7 +23.4 +29.0
09 25.06 В 2 30 км {морось} 9/1 600 м
[Cu med, cong Ac As Cs]
+24.2 +21.9 87 +31 +31 очень
душно
1011.9 1007.0 2
12 25.06 В 2 30 км {дождь, морось} 5/1 600 м
[Cu med, cong Ac As Cs]
+24.8 +20.8 78 +31 +31 очень
душно
1011.1 1006.2 2
15 25.06 В 4 30 км 8/1 600 м
[Cu med, cong Ac trans Cs]
+28.2 +22.4 71 +37 +41 очень
душно
1012.3 1007.4
18 25.06 В 3 30 км 3/0
[Cs]
+30.8 +26.0 76 +46 +63 опасность
перегрева
1011.7 1006.7 +23.6 +31.4
21 25.06 Ю 2 30 км 5/1 600 м
[Cu med, cong Cs]
+32.6 +26.5 70 +49 +61 опасность
перегрева
1010.9 1006.0
00 26.06 ЮЗ 2 30 км 4/1 600 м
[Cu med, cong Cs]
+31.0 +26.0 75 +46 +47 опасность
перегрева
1010.7 1005.9 +23.6 +33.4
03 26.06 СЗ 3 20 км ясно +27.0 +24.8 88 +39 +39 очень
душно
1012.0 1007.2
06 26.06 С 3 20 км ясно +26.0 +23.2 85 +35 +35 очень
душно
1012.6 1007.7 +23.6 +33.4
09 26.06 СЗ 4 20 км ясно +25.4 +22.3 83 +33 +33 очень
душно
1011.5 1006.6
12 26.06 С 3 30 км 1/0
[Cs]
+24.8 +22.9 89 +33 +33 очень
душно
1011.6 1006.7 +24.0 +33.4
15 26.06 С 3 30 км 4/0
[Cs]
+28.6 +23.4 73 +39 +46 очень
душно
1011.7 1006.8
18 26.06 З 5 30 км 4/1 600 м
[Cu med, cong Cs]
+30.6 +25.5 74 +45 +54 опасность
перегрева
1011.5 1006.6 +24.0 +31.0
21 26.06 З 5 30 км 4/1 600 м
[Cu med, cong Cs]
+30.8 +26.3 77 +47 +53 опасность
перегрева
1009.8 1004.9
00 27.06 СЗ 3 30 км 10/1 600 м
[Cu med, cong Ac As Cs]
+28.6 +25.9 85 +43 +43 опасность
перегрева
1009.7 1004.8 +24.0 +31.6
03 27.06 С 2 30 км 8/1 600 м
[Cu med, cong Ac As Cs]
+27.8 +25.7 88 +41 +41 опасность
перегрева
1010.8 1005.9
06 27.06 СЗ 3 30 км 4/0
[Cs]
+26.0 +22.4 81 +34 +34 очень
душно
1011.5 1006.6 +24.0 +31.6
09 27.06 СВ 2 30 км ясно +25.0 +22.8 88 +33 +33 очень
душно
1010.6 1005.7
12 27.06 С 3 30 км 3/0
[Cs]
+24.4 +22.2 88 +32 +32 очень
душно
1010.6 1005.6 +23.8 +31.6
15 27.06 В 1 30 км 9/1 600 м
[Cu med, cong Ac trans Cs]
+28.4 +23.5 75 +39 +44 очень
душно
1010.7 1005.7

 

Местоположение метеостанции Puerto Angel (Мексика): широта 15.68 долгота -96.48 высота над уровнем моря 46 м.

В архиве по умолчанию представлена погода в Puerto Angel за последнюю неделю. Архивные данные за месяц целиком и за предыдущие месяцы, начиная с января 2011 года, Вы можете получить, выбрав интересующий диапазон дат из раскрывающегося списка и нажав кнопку "Ввод!".

Внимание! Время в таблицах - всемирное. Для получения местного времени необходимо прибавить поправку, которая в Puerto Angel равна -6 ч.

Смотрите также архив погоды в соседних городах и на ближайших метеорологических станциях:

Погода в Salina Cruz (Мексика) (149 км)
Погода в Oaxaca (Мексика) (154 км)
Погода в Huajuapan De Leon (Мексика) (273 км)
Погода в Arriaga (Мексика) (283 км)
Погода в Coatzacoalcos (Мексика) (350 км)
Погода в Orizaba Ver. (Мексика) (359 км)
Погода в Cordoba-In-Veracruz (Мексика) (361 км)
Погода в Tuxtla Gutierrez (Мексика) (377 км)
Погода в Chilpancingo (Мексика) (383 км)
Погода в Hacienda Ylang (Мексика) (388 км)

Пояснения к столбцам:

Ветер - указаны скорость ветра в м/с - средняя за 10 мин, порывы в срок и между сроками (в фигурных скобках) и направление, откуда дует ветер: С - северный, СВ - северо-восточный, В - восточный, ЮВ - юго-восточный, Ю - южный, ЮЗ - юго-западный, З - западный, СЗ - северо-западный.
Видимость - горизонтальная дальность видимости в метрах или километрах. При видимости от 1 до 10 км при отсутствии осадков обычно наблюдается дымка, при ухудшении видимости до 1 км и менее - туман. В сухую погоду видимость может ухудшаться дымом, пылью или мглою.
Явления - указаны атмосферные явления, наблюдавшиеся в срок или в последний час перед сроком; фигурными скобками обозначены явления, наблюдавшиеся между сроками (за 1-3 часа до срока); квадратными скобками обозначены град или гололедные отложения с указанием их диаметра в мм.
Облачность - указаны через наклонную черту общая и нижняя облачность в баллах и высота нижней границы облаков в метрах; квадратными скобками обозначены формы облаков: Ci - перистые, Cs - перисто-слоистые, Cc - перисто-кучевые, Ac - высококучевые, As - высокослоистые, Sc - слоисто-кучевые, Ns - слоисто-дождевые, Cu - кучевые, Cb - кучево-дождевые. Подробнее классификацию облаков см. в Атласе облаков (PDF).
T - Температура воздуха - температура, измеренная на высоте 2 м над землей.
Td - Температура точки росы - температура, при понижении до которой содержащийся в воздухе водяной пар достигнет насыщения.
f - Относительная влажность воздуха - влажноcть воздуха, измеренная на высоте 2 м над землей.
Te - Эффективная температура - температура, которую ощущает одетый по сезону человек в тени. Характеристика душности погоды. При расчете учитывается влияние влажности воздуха и скорости ветра на теплоощущения человека.
Tes - Эффективная температура на солнце - температура, которую ощущает человек, с поправкой на солнечный нагрев. Характеристика знойности погоды. Зависит от высоты солнца над горизонтом, облачности и скорости ветра. Ночью, в пасмурную погоду, а также при ветре 12 м/с и более поправка равна нулю.
P - Атмосферное давление - приведенное к уровню моря атмосферное давление.
Po - Атмосферное давление - измеренное на уровне метеостанции атмосферное давление.
Tmin - Минимальная температура - минимум температуры воздуха на высоте 2 м над землей.
Tmax - Максимальная температура - максимум температуры воздуха на высоте 2 м над землей.
R - Количество осадков - Количество выпавших осадков за период времени, мм. При наведении курсора мыши на число - период времени, за который выпало указанное количество осадков.
R24 - Количество осадков - Количество выпавших осадков за 24 часа, мм.
S - Снежный покров - Высота снежного покрова, см. При наведении курсора мыши на число - состояние снежного покрова и степень покрытия местности в баллах.